Flag for Turkmenistan Weather past 2 weeks in Ashgabat, Turkmenistan

Now
59 °F

Dense fog.


Feels Like: 54 °F
Forecast: 52 / 70 °F
Wind: 29 mph from West

Location: Ashgabat

Current Time: Apr 26, 2015 at 3:02:25 AM

Latest Report: Apr 26, 2015 at 2:00 AM


Visibility: 2 mi

Pressure: 30.07 "Hg

Humidity: 31%

Dew point: 28 °F

Location of AshgabatLocation

Historic Weather in Ashgabat — Graph

°F

Ashgabat temperature yesterday

Maximum temperature yesterday: 77 °F (at 1:00 PM)
Minimum temperature yesterday: 59 °F (at 11:00 PM)
Average temperature yesterday: 67 °F

Past Weeks' High & Low Weather Summary

 TemperatureHumidityPressure
High100 °F (Apr 22, 1:30 PM)94% (Apr 14, 4:00 AM)30.18 "Hg (Apr 14, 4:00 AM)
Low50 °F (Apr 14, 4:00 AM)6% (Apr 22, 1:30 PM)29.59 "Hg (Apr 22, 4:00 PM)
Average67 °F47%29.91 "Hg
* Reported Apr 11 1:00 AM — Apr 26 1:30 AM, Ashgabat, Weather by CustomWeather, © 2015

Note: Actual official high and low records may vary slightly from our data, if they occured in-between our weather recording intervals... More about our weather records

Advertising

Ashgabat weather history for previous 24 hours

 ConditionsComfort  
Time TempWeatherWind HumidityBarometerVisibility
1:30 AM
Sun, Apr 26
57 °FPassing clouds.24 mph36%30.07 "HgN/A
1:00 AM59 °FPassing clouds.26 mph31%30.04 "HgN/A
12:30 AM59 °FPassing clouds.31 mph34%30.04 "Hg4 mi
12:00 AM57 °FPassing clouds.24 mph36%30.04 "HgN/A
11:30 PM
Sat, Apr 25
59 °FPassing clouds.22 mph34%30.07 "HgN/A
11:00 PM59 °FPassing clouds.20 mph34%30.04 "HgN/A
10:30 PM61 °FPassing clouds.29 mph29%29.98 "HgN/A
10:00 PM61 °FPassing clouds.29 mph29%30.04 "HgN/A
9:30 PM63 °FPartly cloudy.31 mph25%29.98 "HgN/A
9:00 PM63 °FPassing clouds.38 mph27%29.98 "Hg2 mi
8:30 PM63 °FDense fog.36 mph27%29.95 "Hg1 mi
8:00 PM63 °FPartly sunny.31 mph27%29.95 "Hg2 mi
7:30 PM63 °FPartly sunny.31 mph30%29.92 "Hg2 mi
7:00 PM64 °FPartly sunny.33 mph30%29.92 "Hg1 mi
6:30 PM64 °FPartly sunny.33 mph30%29.92 "Hg3 mi
6:00 PM64 °FPartly sunny.31 mph30%29.92 "Hg5 mi
5:30 PM66 °FMostly cloudy.31 mph30%29.89 "Hg3 mi
5:00 PM66 °FMostly cloudy.33 mph32%29.89 "Hg2 mi
4:30 PM66 °FMostly cloudy.33 mph32%29.86 "Hg2 mi
4:00 PM68 °FMostly cloudy.29 mph30%29.86 "Hg2 mi
3:30 PM70 °FPartly sunny.26 mph31%29.83 "Hg4 mi
3:00 PM72 °FPartly sunny.24 mph29%29.83 "Hg2 mi
2:30 PM75 °FPartly sunny.26 mph27%29.83 "Hg3 mi
2:00 PM73 °FPartly sunny.24 mph29%29.83 "Hg2 mi
1:30 PM75 °FBroken clouds.24 mph29%29.83 "Hg2 mi
1:00 PM77 °FBroken clouds.15 mph30%29.83 "HgN/A
12:30 PM75 °FPartly sunny.15 mph29%29.83 "Hg5 mi
12:00 PM73 °FPassing clouds.6 mph36%29.83 "HgN/A
11:00 AM70 °FSunny.3 mph40%29.83 "HgN/A
10:00 AM68 °FSunny.6 mph46%29.83 "HgN/A
9:00 AM64 °FPassing clouds.6 mph52%29.83 "HgN/A
8:00 AM63 °FPassing clouds.3 mph56%29.80 "HgN/A
7:30 AM63 °FPartly sunny.3 mph59%29.80 "HgN/A
7:00 AM61 °FPassing clouds.3 mph63%29.77 "HgN/A
6:00 AM63 °FPartly cloudy.10 mph59%29.74 "HgN/A
5:00 AM66 °FPartly cloudy.17 mph52%29.71 "HgN/A
4:30 AM66 °FPassing clouds.22 mph56%29.68 "Hg4 mi
4:00 AM68 °FPassing clouds.13 mph56%29.68 "HgN/A
3:00 AM68 °FPassing clouds.6 mph60%29.68 "HgN/A
Weather by CustomWeather, © 2015

See weather overviewHow to use our weather pages